NOAA NWS Hourly Roundups by Site

Regional Weather Roundup for Phoenix, AZ

To Select Another Site Choose from List

Select Site:  

000
ASUS45 KPSR 020810
RWRAZ

ARIZONA HOURLY REGIONAL WEATHER ROUNDUP
NATIONAL WEATHER SERVICE PHOENIX AZ
100 AM MST SAT JUL 02 2022

NOTE: FAIR INDICATES FEW OR NO CLOUDS BELOW 12,000 FEET WITH NO
SIGNIFICANT WEATHER AND/OR OBSTRUCTIONS TO VISIBILITY.

AZZ001>003-036-020900-
NORTHWEST ARIZONA

CITY           SKY/WX    TMP DP  RH WIND       PRES   REMARKS
BULLHEAD CITY  CLEAR     93  37  14 S3        29.72S
KINGMAN        CLEAR     78  37  22 NE7       29.95F
$$

AZZ004>008-015-016-018-020900-
NORTH CENTRAL ARIZONA

CITY           SKY/WX    TMP DP  RH WIND       PRES   REMARKS
GRAND CANYON   CLOUDY    58  43  57 CALM      30.23S
WILLIAMS       PTCLDY    61  48  63 SE10      30.24F
PRESCOTT       PTCLDY    71  51  49 SE7       30.13S
FLAGSTAFF      PTCLDY    51  49  92 CALM      30.28S
PAYSON         CLOUDY    66  59  77 N5        30.16F
PAGE           PTCLDY    80  49  33 S8        29.99F
$$

AZZ009>014-017-020900-
NORTHEAST ARIZONA

CITY           SKY/WX    TMP DP  RH WIND       PRES   REMARKS
WINSLOW        MOCLDY    74  51  44 E6        30.11R
WINDOW ROCK    PTCLDY    57  32  38 CALM      30.24F
SHOW LOW       MOCLDY    63  52  67 S7        30.24S
$$

AZZ540-542>544-546-548-020900-
GREATER PHOENIX AREA

CITY           SKY/WX    TMP DP  RH WIND       PRES   REMARKS
PHOENIX        MOCLDY    90  58  33 SE9       29.83F
BUCKEYE        CLEAR     90  57  33 E6        29.84S
LUKE AFB       CLOUDY    91  58  33 SE9       29.82F
DEER VALLEY    MOCLDY    88  59  37 SE8       29.86F
SCOTTSDALE     MOCLDY    88  58  36 S5        29.87F
MESA-FALCON    CLOUDY    89  60  37 SE10      29.86S
MESA-GATEWAY   CLOUDY    87  60  40 SE12      29.87F
$$

AZZ539-553-020900-
SOUTHWEST MARICOPA COUNTY AND PINAL COUNTY

CITY           SKY/WX    TMP DP  RH WIND       PRES   REMARKS
CASA GRANDE    CLOUDY    86  61  42 E5        29.88
GILA BEND      FAIR      90  54  29 N6        29.80R
$$

AZZ503-504-507>509-020900-
SOUTHEAST ARIZONA

CITY           SKY/WX    TMP DP  RH WIND       PRES   REMARKS
TUCSON         CLOUDY    78  65  63 CALM      29.99F
DAVIS-MONTHAN  CLOUDY    75  67  76 S8        29.95F
NOGALES        PTCLDY    70  62  76 CALM      30.06F
SIERRA VISTA   CLOUDY    68  58  70 SW5       30.13F
$$

AZZ532-020900-
SOUTHWEST ARIZONA

CITY           SKY/WX    TMP DP  RH WIND       PRES   REMARKS
YUMA           CLEAR     88  46  23 W5        29.79S
$$

CAZ041-043-047-048-061-525>527-560>570-020900-
SOUTHERN CALIFORNIA

CITY           SKY/WX    TMP DP  RH WIND       PRES   REMARKS
DOWNTOWN L.A.  CLEAR     64  59  83 CALM      29.94S
L.A. AIRPORT   PTCLDY    65  59  81 W5        29.95S
SAN DIEGO      PTCLDY    68  63  84 NW3       29.97S
BURBANK        CLEAR     69  57  65 E7        29.95S
ONTARIO        CLEAR     69  57  65 W5        29.94F
RIVERSIDE      CLEAR     70  53  54 W5        29.95S
PALM SPRINGS   CLEAR     88  40  18 CALM      29.77S
EL CENTRO NAS  CLEAR     91  36  14 W23       29.77F
IMPERIAL       CLEAR     84  42  22 W13       29.76R
BLYTHE         CLEAR     87  46  24 S10       29.75S
NEEDLES        CLEAR     96  38  13 CALM      29.75R
$$

NVZ020-UTZ003-020900-
SOUTHERN NEVADA-UTAH

CITY           SKY/WX    TMP DP  RH WIND       PRES   REMARKS
LAS VEGAS      CLEAR     91  34  13 S10G23    29.82R
SALT LAKE CITY MOCLDY    81  46  29 E16       29.91S
$$

NMZ009-TXZ055-020900-
NEW MEXICO-WEST TEXAS

CITY           SKY/WX    TMP DP  RH WIND       PRES   REMARKS
ALBUQUERQUE    CLOUDY    70  57  63 W8        30.16F
EL PASO        MOCLDY    82  52  35 NW8       30.01F
$$


........................KEY........................
SKY/WX - SKY CONDITION/WEATHER
TMP    - TEMPERATURE IN FAHRENHEIT
DP     - DEW POINT IN FAHRENHEIT
RH     - RELATIVE HUMIDITY IN PERCENT
WIND   - DIRECTION AND SPEED IN MILES PER HOUR (MPH)
VRB    - VARIABLE WIND DIRECTION
PRES   - MEAN SEA LEVEL PRESSURE IN INCHES OF MERCURY
         F - FALLING PRESSURE   R - RISING PRESSURE
         S - STEADY PRESSURE
VSB    - VISIBILITY IN MILES
HX     - HEAT INDEX IN FAHRENHEIT
WCI    - WIND CHILL INDEX IN FAHRENHEIT
TC     - TEMPERATURE IN CELSIUS WHICH IS ALSO KNOWN AS
         TEMPERATURE IN CENTIGRADE
AFB    - AIR FORCE BASE
         LUKE AFB IS LUKE AIR FORCE BASE
         DAVIS-MONTHAN IS DAVIS-MONTHAN AIR FORCE BASE
NAS    - NAVAL AIR STATION
         EL CENTRO NAS IS EL CENTRO NAVAL AIR STATION
N/A    - NOT AVAILABLE



 

View Past Reports for Phoenix, AZ.

Products Courtesy of NOAA-NWS
NWS Information Parsing Script by Ken True at Saratoga Weather - Script by SE Lincoln Weather.